Commit graph

238 commits

Author SHA1 Message Date
b7167eee76 lost+found: trailing spaces 2025-05-09 12:15:46 +02:00
ec178cbea2 lost+found: update description 2025-05-09 12:13:24 +02:00
5410f73560 typograf: shuffle rules 2025-05-09 11:52:19 +02:00
6d1d86e99a typograf: add en-US/dash/main 2025-05-09 11:23:19 +02:00
4f3aa1252d lost+found: typograf 2025-05-09 11:22:42 +02:00
5107b160f9 lost+found: draft 2025-05-09 10:31:40 +02:00
4567ff258b convention: period in the descriptions 2025-05-08 06:02:56 +02:00
96a1b486f3 md-test: update 2025-05-08 05:43:37 +02:00
ca00dcd0b5 posts: selfhosted_llm: update 2025-05-08 05:38:30 +02:00
11412895f2 posts: selfhosted_llm: update 2025-05-08 05:35:25 +02:00
8a1bc55f86 css: mobile tables 2025-05-08 05:10:32 +02:00
8790fa9021 css: outline for links 2025-05-08 04:29:01 +02:00
a008fc14d6 projects: add cantor mx 2024-09-04 23:01:13 +02:00
61a276b7fd projects: add desolate-gtk 2024-08-12 21:58:01 +02:00
6d67d3987a projects: fixup hr position 2024-08-05 06:08:05 +02:00
3aba700e3f templates: merge styles and fonts partials 2024-08-04 23:19:35 +02:00
6829779532 fonts: another aproach 2024-08-04 23:12:25 +02:00
5001ed68f5 rss: update feed 2024-07-27 15:09:57 +02:00
4ad01618a4 posts: update list 2024-07-27 15:06:48 +02:00
5f8334db73 posts: wrapped_bw: rename 2024-07-27 14:29:50 +02:00
def2d43797 posts: wrapped_bw: linting 2024-07-27 14:27:41 +02:00
a1d28ed23b posts: wrapped_bw: typos 2024-07-27 14:14:52 +02:00
7f2d9e77ed posts: initial post: typo 2024-07-27 03:14:09 +02:00
e3978a6ae5 posts: wrapped_bw: update draft 2024-07-27 03:12:33 +02:00
b9d6db30ed posts: wrapped_bw: @shofel review 2024-07-27 03:04:50 +02:00
a67f1fc605 posts: wrapped_bw: update draft 2024-07-25 01:53:05 +02:00
5050291a6f posts: wrapped_bw: update draft 2024-07-25 01:52:08 +02:00
3c314edfc4 projects: update bwc description 2024-07-25 01:41:29 +02:00
3b27c6f6d1 posts: wrapped_bw: draft 2024-07-25 01:19:59 +02:00
51684edac0 posts: selfhosted_llm: typo 2024-07-25 01:19:40 +02:00
448f5795d8 Update README.md 2024-07-19 14:13:28 +02:00
04448751e1 projects: update conky description 2024-07-17 08:38:10 +02:00
3289c20653 projects: add settings section 2024-07-17 08:35:53 +02:00
b1ff018ac5 projects: add fuzzy-bitwarden-clipboard 2024-07-17 08:32:46 +02:00
19058673bd about: add RSS link 2024-07-17 07:43:55 +02:00
23502d9727 rss: update feed 2024-07-17 07:43:03 +02:00
bac6b43734 tools: rss: update entries 2024-07-17 07:32:16 +02:00
a79273c8e1 posts: initial post: missing dot 2024-07-17 07:31:43 +02:00
db2f6eb144 layout: add zebra stripes 2024-05-17 18:36:10 +02:00
e4e85c7996 favicon: update size attributes 2024-01-29 23:42:51 +01:00
7ae8bdd9f7 projects: add tabswitcher 2024-01-26 14:29:26 +01:00
2669bbaf7c inventory: delete page 2024-01-19 17:15:10 +01:00
1209922095 fonts: use font-display: block 2024-01-19 17:06:07 +01:00
50b3d1b9df fonts: use font-display: swap 2024-01-19 16:59:39 +01:00
a793f42886 FOUC fix 2024-01-19 16:40:27 +01:00
a962ee54db css: reorder 2024-01-19 16:30:29 +01:00
76ab46dda1 css: reorder 2024-01-19 16:16:19 +01:00
6037108e42 css: selfhosted fonts 2024-01-19 16:12:23 +01:00
17588a39ad css: do not preload fonts 2024-01-19 15:50:50 +01:00
2c3845b6eb css: preload it again 2024-01-19 15:48:13 +01:00